Regional Weather Roundup
Issued by NWS Wakefield, VA

Home | Current Version | Previous Version | Graphics & Text | Print | Product List | Glossary On
Versions: 1 2 3 4 5 6 7 8 9 10 11 12 13 14 15 16 17 18 19 20 21 22 23 24 25 26 27 28 29 30 31 32 33 34 35 36 37 38 39 40 41 42 43 44 45 46 47 48 49 50
000
ASUS41 KAKQ 200013
RWRAKQ

REGIONAL WEATHER ROUNDUP
NATIONAL WEATHER SERVICE WAKEFIELD VA
700 PM EST SUN NOV 19 2017

Note: "fair" indicates few or no clouds below 12,000 feet with no
significant weather and/or obstructions to visibility. * = Denotes
station may not report precipitation (e.g., rain,snow,etc.),
thunder or fog.

VAZ042-051-052>054-056-200100-
NORTHERN VIRGINIA

CITY           SKY/WX    TMP DP  RH WIND       PRES   REMARKS
WASH NATIONAL  MOCLDY    46  26  45 NW12      29.89R
DULLES         MOCLDY    42  28  57 W8        29.88R
FORT BELVOIR   PTCLDY    44  25  46 NW9       29.89R
QUANTICO       MOCLDY    47  25  42 N5        29.90
FREDERICKSBRG* MOCLDY    46  26  46 W10       29.89R
STAFFORD*      CLOUDY    44  24  45 W8        29.93R
WARRENTON      NOT AVBL
CULPEPER*      MOCLDY    46  23  40 W5        29.91R
MANASSAS*      PTCLDY    42  26  53 NW7       29.90R
LEESBURG*      MOCLDY    45  32  61 NW13G28   29.89R
WINCHESTER     CLOUDY    41  28  60 NW12      29.88R
FRONT ROYAL*   CLOUDY    43  27  52 MISG      29.88R
LURAY*         MOCLDY    41  27  56 W17       29.89R
$$

VAZ048-049-060>072-079>083-200100-
CENTRAL AND SOUTH CENTRAL VIRGINIA

CITY           SKY/WX    TMP DP  RH WIND       PRES   REMARKS
RICHMOND       PTCLDY    50  26  39 NW12      29.90R
CHESTERFIELD*  NOT AVBL
PETERSBURG*    NOT AVBL
HANOVER        PTCLDY    46  26  45 NW6       29.92R
TAPPAHANNOCK*    N/A    N/A N/A N/A MISG        N/A
QUINTON*       MOCLDY    48  26  41 NW9G17    29.89R
CHARLOTTSVILLE PTCLDY    45  21  38 NW8       29.92R
GORDONSVILLE*  CLOUDY    45  22  41 W3        29.91R
ORANGE*        CLOUDY    43  23  45 W10       29.90R
LOUISA*          N/A     44  20  38 NW14G22     N/A
BUMPASS*       MOCLDY    44  23  42 W5        29.91R
FARMVILLE*     CLEAR     45  27  49 CALM      29.94R
CREWE*         FAIR      45  26  47 W6        29.93R
FORT PICKETT*  NOT AVBL
CHASE CITY*    FAIR      42  26  51 W6        29.96R
CLARKSVILLE*   FAIR      43  27  52 NW6       29.97R
SOUTH HILL*    CLEAR     44  27  51 NW6G16    30.01R
LAWRENCEVILLE* FAIR      45  25  45 NW7       29.94R
EMPORIA*       PTCLDY    46  28  49 W9G18     29.94R
$$

VAZ088>098-200100-
SOUTHEAST VIRGINIA

CITY           SKY/WX    TMP DP  RH WIND       PRES   REMARKS
NORFOLK        CLOUDY    54  29  38 VRB5      29.86R
VIRGINIA BEACH MOCLDY    50  29  44 NW7       29.86R
NORFOLK NAVAL  MOCLDY    53  29  39 NW14      29.89R
WEST POINT*    MOCLDY    48  25  39 NW5       29.91R
SALUDA*        MOCLDY    48  31  52 NW10G16   29.88R
NEWPORT NEWS   CLOUDY    51  26  37 NW13G22   29.88R
LANGLEY AFB    MOCLDY    51  29  41 NW7       29.88R
FORT EUSTIS    CLOUDY    52  29  41 NW14G21   29.86R
WILLIAMSBURG*  CLOUDY    50  30  46 NW5       29.90R
HR EXEC AP*    NOT AVBL
FRANKLIN*      CLEAR     49  29  47 W14G23    29.90R
US460-WAKEFLD  CLEAR     49  30  48 W9        29.90R
$$

VAZ020-022-025-037-045-200100-
WEST CENTRAL AND SOUTHWEST VIRGINIA

CITY           SKY/WX    TMP DP  RH WIND       PRES   REMARKS
STAUNTON*      CLOUDY    40  22  48 W7G18     29.93R
WAYNESBORO*    CLOUDY    40  22  48 W5        29.91R
HOT SPRINGS VA CLOUDY    30  21  70 W26G35    29.84R WCI  15
LYNCHBURG      CLEAR     41  22  46 W8        29.96R
DANVILLE       CLEAR     40  26  57 W5        29.99R
SOUTH BOSTON*  FAIR      41  25  51 W3        29.99R
MARTINSVILLE   CLEAR     39  23  51 N8        30.03R
ROANOKE        MOCLDY    41  23  48 W17G28    30.00R
BLACKSBURG     CLOUDY    36  25  64 W14G23    30.00R
DUBLIN*        CLOUDY    37  25  61 W20G30    30.00R
MARION*        CLOUDY    36  21  55 W24G37    30.01S WCI  24
HILLSVILLE*    MOCLDY    33  22  64 NW15G24   29.95S WCI  23
RICHLANDS*     CLOUDY    33  26  75 W5        30.02S
WISE*          PTCLDY    34  28  80 W7        30.05R
ABINGDON*      CLOUDY    39  29  67 W9        30.06R
$$

MDZ021>025-VAZ099-100-200100-
SOUTHERN MARYLAND AND THE DELMARVA PENINSULA

CITY           SKY/WX    TMP DP  RH WIND       PRES   REMARKS
PATUXENT RIVER PTCLDY    47  26  44 NW21G31   29.87R
BAY BRIDGE APT MOCLDY    46  27  46 NW13G21   29.87R
LEONARDTOWN    PTCLDY    45  25  45 NW8       29.89R
DOVER          CLOUDY    46  36  67 W17G26    29.82R
GEORGETOWN     CLOUDY    47  26  44 W9        29.84R
EASTON         PTCLDY    46  25  42 NW13G29   29.89R
CAMBRIDGE      PTCLDY    46  25  42 NW13G21   29.87R
SALISBURY      CLEAR     45  27  49 NW10G20   29.85R
OCEAN CITY     PTCLDY    44  28  53 NW8       29.85R
WALLOPS ISLAND PTCLDY    45  28  51 NW10      29.87R
ACCOMACK*      MOCLDY    48  31  52 NW15G25   29.87R
$$

NCZ012>017-030>032-200100-
NORTH CENTRAL AND EASTERN NORTH CAROLINA

CITY           SKY/WX    TMP DP  RH WIND       PRES   REMARKS
ROANOKE RAPIDS FAIR      46  30  53 W7        29.93R
RALEIGH        CLEAR     46  25  43 NW8G23    29.98R
ELIZABETH CITY CLEAR     44  34  67 SW7       29.88R
AHOSKIE*       PTCLDY    49  28  44 W5        29.92R
EDENTON*       CLEAR     54  33  45 NW6       29.89R
CURRITUCK*     CLEAR     51  32  47 CALM      29.87R
KILL DEVIL HLS CLEAR     54  37  51 NW9G18    29.85R
MANTEO         CLEAR     55  35  48 NW9G17    29.87R
CAPE HATTERAS  CLEAR     57  39  51 NW13G21   29.87R
TARBORO*       NOT AVBL
GOLDSBORO      CLEAR     53  29  40 NW10      29.92R
WASHINGTON     CLEAR     53  29  40 NW7       29.90R
GREENVILLE     CLEAR     52  30  43 NW6       29.94R
NEW BERN       CLEAR     50  34  54 W3        29.92R
WILMINGTON     CLEAR     53  34  48 NW5       29.94R
$$

VAZ048-200100-
ELSEWHERE

CITY           SKY/WX    TMP DP  RH WIND       PRES   REMARKS
HARRISBURG PA  MOCLDY    42  26  53 NW14      29.81R
BALTIMORE      MOCLDY    43  25  49 W14G20    29.86R
ANNAPOLIS      CLOUDY    47  27  45 NW10G21   29.86
ANDREWS AFB    PTCLDY    44  25  47 W16G23    29.86R
PHILADELPHIA   MOCLDY    47  25  42 W13       29.79R
HENDERSON NC   CLEAR     41  23  48 NW9G17    29.97R
GREENSBORO     CLEAR     43  25  49 NW15      29.99R
ROCKY MOUNT    CLEAR     50  28  42 NW17G24   29.95R
$$

VAZ100-200100-
MARINE

STATION/POSITION TIME  TEMP    WIND        PRES    WAVE   SWELL
                       AIR SEA DIR/SP/G            HT/PER HT/PER
                 (UTC) (F)     (DEG/KT/KT) (MB)    (FT/S) (FT/S)
BRANDYWINE LGT   2336   48     310/ 26/ 32 1009.6R
CAPE MAY NJ      2336   47 51  310/ 27/ 34 1008.6R
LEWES DE         2336   47 53  300/ 17/ 21 1009.7R
15NM E FENWICK I 2350   49 59  290/ 27/ 31 1009.4R   7/ 6   2/ 9
OCEAN-CITY-INLET 2336   47 52  330/ 12/ 17 1010.6R
WACHAPREAGUE VA  2336   48 53  320/  5/ 15 1010.9R
THOMAS POINT MD  0000   46 53  300/ 13/ 16   N/A
GOOSES REEF MD   2350   48     320/ 16/ 19   N/A
COVE POINT MD    2336   47     320/ 12/ 21 1012.2R
SOLOMONS ISLAND  2336   48 54  320/ 16/ 22 1011.1R
BISHOPS HEAD MD  2336   48 51     CALM     1011.8R
PINEY POINT MD   2348          350/ 20/ 21   N/A
POTOMAC MD       2350   49     340/ 19/ 27 1010.8R
CAMBRIDGE MD     2336   47 51              1011.8R
LEWISETTA VA     2336   49 52  340/ 15/ 22 1011.5R
RAPPAHANNOCK LGT 2348          320/ 24/ 29 1011.7R
STINGRAY PT      2350   50     360/ 16/ 19 1011.7R
YORK RVR RNG VA  2348   53     330/ 18/ 22 1012.0R
YORKTOWN VA      2348   53 55  330/ 22/ 25 1011.6R
JAMESTOWN VA     2350          350/ 14/ 17   N/A
DOMINION TERM VA 2348   54     350/  4/ 13 1011.6R
KIPTOPEKE VA     2336      55   10/ 11/ 14   N/A
CAPE HENRY VA    2348   55     320/ 18/ 21   N/A
WILLOUBY STN VA  2336   54     320/ 13/ 15 1011.2R
S CRANEY ISL VA  2348   53     290/  9/ 14 1010.9R
CAPE HENRY BUOY  0000      60                N/A     4/ 4
1ST LANDING BUOY 2350   54     350/ 19/ 23 1010.8R
CAPE CHARLES BUO 2351      58                N/A     3/ 4
64NM E OF VA BCH 2350   56 61  320/ 17/ 19 1010.2R   7/ 7   2/ 9
DUCK PIER NC     2348   55 61  300/ 14/ 17 1010.7R
44100 DUCK FRF   2345      61                N/A     4/ 5
44056 DUCK FRF   0000      62                N/A     3/ 5
OREGON INLET NC  2336   55 58  290/  8/ 12 1010.7R
HATTERAS NC      2336   58 61  320/ 18/ 20 1011.1R
DIAMOND SHLS NC  2350   60 65  320/ 17/ 25 1011.4R   6/ 9   3/ 9
CAPE LOOKOUT NC  0000          320/ 13/ 17 1013.0R
$$



USA.gov is the U.S. government's official web portal to all federal, state and local government web resources and services.